Regional Weather Roundup
Issued by NWS

Home | Current Version | Previous Version | Text Only | Print | Product List | Glossary Off
Versions: 1 2 3 4 5 6 7 8 9 10 11 12 13 14 15 16 17 18 19 20 21 22 23 24 25 26 27 28 29 30 31 32 33 34 35 36 37 38 39 40 41 42 43 44 45 46 47 48 49 50

000
ASUS43 KDTX 031510
RWRMI
MICHIGAN HOURLY REGIONAL WEATHER ROUNDUP
NATIONAL WEATHER SERVICE DETROIT/PONTIAC MI
1100 AM EDT FRI JUL 03 2015

NOTE: "FAIR" INDICATES FEW OR NO CLOUDS BELOW 12,000 FEET WITH NO
SIGNIFICANT WEATHER AND/OR OBSTRUCTION TO VISIBILITY.

MIZ047>049-052>055-059>063-066>070-074>076-081>083-031600-
SOUTHEAST LOWER MICHIGAN

CITY           SKY/WX    TMP DP  RH WIND       PRES   REMARKS
ADRIAN         MOSUNNY   68  52  56 E8        29.99F
ALMA           MOSUNNY   65  47  52 CALM      30.02F
ANN ARBOR      MOSUNNY   68  51  54 VRB5      29.99F
BAD AXE        SUNNY     66  38  36 CALM      30.02F
CARO           MOSUNNY   66  45  46 CALM      30.00F
DETROIT CITY   MOSUNNY   66  52  60 CALM      29.99F
DETROIT        PTSUNNY   69  53  56 CALM      30.00F
FLINT          MOSUNNY   68  44  42 MISG      30.00F
GROSSE ILE     MOSUNNY   68  57  68 NE5       29.98S
HILLSDALE      MOSUNNY   67  52  58 NE7       29.99F
HOWELL         MOSUNNY   67  51  56 NE3       30.00S

CITY           SKY/WX    TMP DP  RH WIND       PRES   REMARKS
JACKSON        MOSUNNY   68  52  56 VRB3      30.00S
LAMBERTVILLE   MOSUNNY   70  54  57 SE7       29.99S
LANSING        MOSUNNY   68  49  50 VRB3      30.00F
LAPEER         FAIR      64  47  52 CALM      30.01F
MASON          MOSUNNY   65  51  60 CALM      30.00S
MONROE         MOSUNNY   68  56  64 E5        29.98F
MT. CLEMENS    PTSUNNY   66  55  66 CALM      29.97F
PONTIAC        PTSUNNY   66  45  46 CALM      29.99F
PORT HOPE        N/A     66  48  52 E7        30.00F
PORT HURON     MOSUNNY   66  52  59 SE5       30.00F
TRI CITIES     MOSUNNY   67  45  45 CALM      30.02F
MIDLAND        FAIR      67  49  52 CALM      30.01F
TROY           MOSUNNY   67  47  49 E3        30.01F
SAGINAW HB     MOSUNNY   64  41  42 CALM      30.01S
$$
MIZ043>046-050>051-056>058-064>065-071>073-077>080-031600-
SOUTHWEST LOWER MICHIGAN

CITY           SKY/WX    TMP DP  RH WIND       PRES   REMARKS
BATTLE CREEK   PTSUNNY   69  52  54 SE3       30.00F
BENTON HARBOR  PTSUNNY   69  57  65 E3        29.98F
BIG RAPIDS     MOSUNNY   68  40  36 SE5       30.00F
COLDWATER      MOSUNNY   68  52  56 E6        29.99S
FREMONT        FAIR      67  41  37 CALM      30.00S
HOLLAND        PTSUNNY   70  55  59 VRB3      30.00F
GRAND RAPIDS   PTSUNNY   68  55  63 CALM      30.00F
IONIA          FAIR      66  52  60 CALM      30.00F
KALAMAZOO      MOSUNNY   69  55  60 CALM      29.99F
LUDINGTON      SUNNY     71  52  50 W3        30.00S
MARSHALL       MOSUNNY   67  52  59 E3        29.99S
MOUNT PLEASANT MOSUNNY   66  48  51 SE6       30.01S
MUSKEGON       PTSUNNY   70  52  52 CALM      30.00F
SOUTH HAVEN    PTSUNNY   69  55  61 SE3       29.98F
$$
MIZ016>042-031600-
NORTHERN LOWER MICHIGAN

CITY           SKY/WX    TMP DP  RH WIND       PRES   REMARKS
ALPENA         SUNNY     72  43  35 S10       29.99F
BEAVER ISLAND  SUNNY     63  52  66 SW12      29.97R
BELLAIRE       MOSUNNY   67  50  53 S7        29.99S
CADILLAC       SUNNY     69  49  49 SW6       30.00F
CHARLEVOIX     SUNNY     67  51  57 SW7       30.00F
FRANKFORT      SUNNY     68  47  47 W8        30.00S
GAYLORD        PTSUNNY   66  50  56 SW10      29.99F
GRAYLING       SUNNY     68  50  51 SW7       30.01S
HARBOR SPRINGS SUNNY     65  53  64 W5        29.97F
HOUGHTON LAKE  SUNNY     67  44  43 S7        30.02S
MANISTEE       SUNNY     66  48  52 W5        30.00F
OSCODA         SUNNY     69  45  42 S9        30.00F
PELLSTON       MOSUNNY   67  52  58 SW8       29.96F
ROGERS CITY    PTSUNNY   68  54  60 SW12      29.97F
TRAVERSE CITY  CLOUDY    69  49  48 W9        29.98S
$$
MIZ007>008-015-031600-
EASTERN UPPER MICHIGAN

CITY           SKY/WX    TMP DP  RH WIND       PRES   REMARKS
KINROSS        SUNNY     66  54  63 SW8       29.93S
MACKINAC ISLAN SUNNY     64  53  68 SW10G18   29.94F
NEWBERRY       SUNNY     68  57  68 SW9       29.91F
S. S. MARIE    MOSUNNY   68  54  60 VRB5      29.91F
MUNISING         N/A     72  56  57 SW8       29.88F
$$
MIZ004>006-011>014-085-031600-
CENTRAL UPPER MICHIGAN

CITY           SKY/WX    TMP DP  RH WIND       PRES   REMARKS
MANISTIQUE     SUNNY     63  55  77 SW9       29.93F
ESCANABA       SUNNY     70  52  52 SW9       29.92F
MENOMINEE      SUNNY     64  52  63 W8        29.96S
SAWYER-GWINN   PTSUNNY   68  54  60 W10       29.91F
$$
MIZ001>003-009>011-084-031600-
WESTERN UPPER MICHIGAN

CITY           SKY/WX    TMP DP  RH WIND       PRES   REMARKS
IRON MOUNTAIN  MOSUNNY   68  53  58 W7        29.94F
HOUGHTON       PTSUNNY   65  56  72 W15       29.85F
COPPER HARBOR    N/A     65  58  78 W9G18     29.82F
IRONWOOD       CLOUDY    66  54  63 SW13      29.89S
$$

ABBREVIATIONS USED IN REMARKS
   TC - TEMPERATURE IN CELSIUS
  WCI - WIND CHILL INDEX
   HX - HEAT INDEX
  VSB - VISIBILITY



USA.gov is the U.S. government's official web portal to all federal, state and local government web resources and services.